Total_Precipitation_Accumulation
1.81 1.84 1.78 1.79 1.68 1.88 2.19 2.26 2.16 2.34 2.37 2.18 1.97 1.78 1.69 1.53 1.39 1.43 1.52 1.45 1.33 1.41 1.68 1.79 1.65 1.53 1.43 1.26 1.10 1.04 1.00 0.93 0.88 0.74 0.61 0.58 0.69 0.69 0.58 0.48 0.43 0.38 0.35
2.27 2.30 2.15 2.08 1.94 1.97 2.15 2.27 2.31 2.73 2.60 2.46 2.04 1.84 1.78 1.74 1.60 1.55 1.61 1.72 1.46 1.32 1.44 1.73 1.89 1.85 1.76 1.55 1.37 1.23 1.10 1.00 0.90 0.69 0.57 0.53 0.61 0.71 0.67 0.59 0.49 0.40 0.30
2.39 2.44 2.41 2.27 2.19 2.17 2.29 2.30 2.50 2.73 2.44 2.32 2.04 1.94 1.83 1.70 1.56 1.57 1.74 1.90 1.71 1.48 1.34 1.45 1.74 1.90 1.94 1.92 1.81 1.55 1.27 1.09 0.96 0.75 0.58 0.53 0.57 0.65 0.65 0.66 0.61 0.46 0.31
2.40 2.47 2.27 2.15 2.38 2.47 2.52 2.63 2.71 2.73 2.55 2.46 2.27 1.96 1.81 1.72 1.38 1.39 1.46 1.51 1.62 1.45 1.54 1.67 1.80 1.86 2.03 2.16 2.16 2.09 1.79 1.41 1.16 0.96 0.77 0.65 0.67 0.68 0.62 0.62 0.60 0.48 0.35
2.23 2.36 2.19 2.24 2.45 2.54 2.55 2.36 2.69 2.66 2.60 2.49 2.11 1.86 1.61 1.44 1.31 1.16 1.18 1.11 1.22 1.26 1.34 1.49 1.65 1.65 1.95 2.29 2.45 2.52 2.40 2.01 1.57 1.30 1.18 0.99 0.88 0.78 0.68 0.64 0.60 0.53 0.41
2.28 2.40 2.26 2.33 2.47 2.54 2.49 2.49 2.64 2.65 2.49 2.44 1.99 1.68 1.44 1.17 1.18 1.12 0.96 0.99 1.03 0.97 1.03 1.22 1.50 1.32 1.67 2.02 2.19 2.51 2.73 2.57 2.13 1.77 1.62 1.49 1.34 1.10 0.86 0.77 0.73 0.66 0.54
2.35 2.50 2.38 2.51 2.50 2.34 2.32 2.48 2.62 2.47 2.23 2.39 2.19 1.61 1.22 1.01 1.01 0.97 0.97 1.03 0.97 0.96 1.09 1.34 1.42 1.34 1.31 1.44 1.50 1.81 2.36 2.73 2.64 2.27 1.96 1.77 1.74 1.61 1.21 1.06 0.98 0.88 0.75
2.23 2.19 2.25 2.18 2.21 2.27 2.28 2.33 2.48 2.28 1.92 2.11 2.10 1.85 1.31 1.09 0.91 0.79 0.94 0.96 0.95 1.05 1.11 1.24 1.47 1.59 1.48 1.60 1.33 1.32 1.86 2.48 2.78 2.75 2.40 2.12 2.01 1.92 1.60 1.46 1.26 1.04 0.91
1.89 1.89 1.89 1.99 2.20 2.28 2.22 2.25 2.26 2.12 1.80 1.79 1.92 2.01 1.51 1.14 0.92 0.68 0.72 0.86 1.03 1.19 1.17 1.32 1.43 1.56 1.63 1.78 1.80 1.59 1.54 1.72 2.23 2.82 2.81 2.49 2.17 1.94 1.96 1.99 1.77 1.37 1.07
1.72 1.66 1.66 1.71 1.78 1.83 1.85 1.74 1.85 1.98 1.93 1.74 1.81 1.83 1.66 1.49 1.31 0.91 0.73 0.77 0.93 1.05 1.15 1.16 1.18 1.29 1.56 1.90 2.01 1.77 1.53 1.38 1.55 2.26 2.77 2.80 2.47 2.15 2.12 2.24 2.39 2.05 1.48
1.61 1.54 1.47 1.44 1.37 1.40 1.50 1.52 1.62 1.67 1.69 1.67 1.69 1.75 1.71 1.66 1.60 1.41 1.06 1.00 0.98 0.88 0.95 1.04 1.08 1.14 1.42 1.68 1.83 1.73 1.71 1.51 1.46 1.63 2.01 2.37 2.43 2.33 2.23 2.36 2.71 2.75 2.36
1.39 1.30 1.27 1.29 1.24 1.25 1.32 1.38 1.46 1.42 1.49 1.55 1.57 1.63 1.69 1.67 1.69 1.69 1.39 1.24 1.15 0.97 0.97 0.94 0.95 1.02 1.24 1.42 1.36 1.48 1.48 1.34 1.26 1.31 1.46 1.74 1.91 2.03 2.11 2.32 2.70 3.02 3.04
1.04 1.01 0.96 1.06 1.08 1.15 1.17 1.17 1.24 1.32 1.44 1.51 1.51 1.57 1.60 1.57 1.57 1.63 1.57 1.33 1.21 1.08 1.10 1.03 0.92 0.97 0.98 1.26 1.26 1.16 1.01 0.93 0.91 0.94 0.95 1.10 1.32 1.47 1.65 1.88 2.21 2.55 2.82
0.78 0.83 0.91 1.01 1.07 1.10 1.08 1.10 1.09 1.14 1.28 1.40 1.47 1.64 1.56 1.45 1.48 1.55 1.63 1.59 1.39 1.24 1.24 1.10 0.98 0.93 0.96 1.07 1.04 0.90 0.83 0.74 0.71 0.69 0.67 0.70 0.78 0.90 1.05 1.27 1.53 1.77 1.97
0.80 0.80 0.86 0.94 1.04 1.13 1.14 1.11 1.10 1.18 1.32 1.39 1.52 1.61 1.55 1.51 1.52 1.52 1.62 1.70 1.64 1.46 1.28 1.19 1.08 0.95 0.93 0.92 0.88 0.88 0.85 0.75 0.65 0.60 0.56 0.54 0.57 0.60 0.69 0.85 1.02 1.19 1.30
0.81 0.79 0.83 0.87 0.86 0.90 0.95 0.95 1.00 1.11 1.27 1.33 1.34 1.40 1.45 1.48 1.61 1.56 1.61 1.69 1.73 1.64 1.35 1.27 1.18 0.98 1.03 0.81 0.79 0.82 0.82 0.72 0.57 0.51 0.49 0.49 0.51 0.54 0.57 0.62 0.73 0.87 1.03
0.76 0.75 0.75 0.72 0.68 0.67 0.68 0.73 0.82 0.96 1.03 1.04 1.02 1.05 1.10 1.19 1.32 1.35 1.42 1.49 1.61 1.66 1.40 1.35 1.48 1.36 1.32 1.10 0.94 0.87 0.73 0.68 0.61 0.52 0.45 0.44 0.45 0.49 0.54 0.56 0.57 0.63 0.75
0.65 0.68 0.66 0.64 0.59 0.59 0.65 0.69 0.75 0.82 0.89 0.87 0.86 0.88 0.85 0.94 1.09 1.15 1.23 1.34 1.50 1.69 1.54 1.46 1.61 1.66 1.57 1.37 1.24 1.07 0.80 0.65 0.68 0.64 0.49 0.42 0.41 0.44 0.51 0.55 0.52 0.52 0.57
0.55 0.57 0.60 0.61 0.61 0.67 0.77 0.85 0.89 0.85 0.75 0.68 0.64 0.63 0.63 0.71 0.83 0.95 1.09 1.15 1.26 1.57 1.64 1.52 1.56 1.81 1.79 1.62 1.57 1.31 1.12 1.01 0.75 0.70 0.56 0.46 0.43 0.43 0.48 0.57 0.58 0.54 0.52
0.59 0.63 0.65 0.69 0.74 0.75 0.77 0.81 0.81 0.83 0.77 0.66 0.54 0.46 0.45 0.54 0.67 0.79 0.89 1.00 1.11 1.28 1.48 1.54 1.54 1.76 1.86 1.76 1.86 1.65 1.42 1.25 1.02 0.80 0.72 0.54 0.47 0.49 0.49 0.52 0.57 0.60 0.61
0.51 0.63 0.70 0.73 0.81 0.75 0.67 0.66 0.66 0.61 0.61 0.61 0.54 0.43 0.38 0.42 0.49 0.60 0.66 0.78 0.94 1.09 1.20 1.37 1.49 1.65 1.88 1.89 1.77 1.74 1.57 1.41 1.30 1.19 1.15 0.82 0.56 0.48 0.48 0.50 0.56 0.64 0.71
0.46 0.54 0.54 0.59 0.65 0.58 0.51 0.49 0.49 0.49 0.51 0.53 0.53 0.50 0.43 0.39 0.37 0.42 0.47 0.54 0.63 0.74 0.92 1.13 1.26 1.41 1.65 1.84 1.83 1.85 1.76 1.53 1.41 1.34 1.41 1.41 1.08 0.83 0.66 0.47 0.47 0.57 0.70
0.50 0.53 0.52 0.51 0.53 0.60 0.51 0.44 0.40 0.40 0.45 0.48 0.49 0.49 0.39 0.34 0.34 0.34 0.35 0.39 0.45 0.46 0.54 0.76 0.92 0.99 1.16 1.46 1.77 1.90 1.97 1.82 1.62 1.58 1.60 1.70 1.77 1.51 1.03 0.71 0.62 0.54 0.62
0.65 0.65 0.58 0.56 0.57 0.57 0.55 0.46 0.42 0.37 0.40 0.45 0.48 0.46 0.43 0.40 0.40 0.43 0.44 0.43 0.38 0.37 0.38 0.42 0.52 0.72 0.88 1.12 1.49 1.70 1.94 2.10 1.98 1.88 1.84 1.92 2.00 2.21 1.76 1.20 0.97 0.76 0.71
0.73 0.73 0.68 0.66 0.64 0.63 0.56 0.47 0.46 0.46 0.48 0.48 0.50 0.49 0.47 0.45 0.43 0.38 0.41 0.44 0.39 0.38 0.36 0.39 0.43 0.58 0.77 0.90 1.18 1.51 1.75 1.87 1.93 2.00 2.00 2.07 2.05 2.19 2.51 2.09 1.41 1.01 0.80
0.90 0.86 0.80 0.81 0.81 0.80 0.70 0.55 0.53 0.54 0.57 0.58 0.66 0.64 0.52 0.42 0.41 0.37 0.38 0.44 0.43 0.42 0.45 0.44 0.45 0.50 0.58 0.72 0.92 1.19 1.40 1.57 1.61 1.74 1.69 1.64 1.67 1.80 2.25 2.54 2.20 1.57 1.12